EN

Hourly Weather Dziwle

Today, 22 October, Thursday

Time Temperature Precipitation Wind Pressure Humidity
00:00 +10°C° 0 mm 5 mps 739 mmHg 72%
01:00 +10°C° 0 mm 5 mps 739 mmHg 74%
02:00 +10°C° 0 mm 5 mps 739 mmHg 74%
03:00 +10°C° 0 mm 5 mps 739 mmHg 74%
04:00 +10°C° 0 mm 5 mps 739 mmHg 74%
05:00 +10°C° 0 mm 5 mps 739 mmHg 73%
06:00 +10°C° 0 mm 5 mps 740 mmHg 72%
07:00 +10°C° 0 mm 5 mps 740 mmHg 72%
08:00 +13°C° 0 mm 5 mps 740 mmHg 67%
09:00 +14°C° 0 mm 6 mps 741 mmHg 62%
10:00 +16°C° 0 mm 6 mps 741 mmHg 58%
11:00 +16°C° 0 mm 6 mps 741 mmHg 57%
12:00 +17°C° 0 mm 5 mps 741 mmHg 56%
13:00 +19°C° 0 mm 5 mps 741 mmHg 55%
14:00 +18°C° 0 mm 4 mps 741 mmHg 59%
15:00 +18°C° 0 mm 3 mps 741 mmHg 63%
16:00 +17°C° 0 mm 3 mps 741 mmHg 67%
17:00 +16°C° 0 mm 3 mps 741 mmHg 69%
18:00 +14°C° 0 mm 3 mps 741 mmHg 72%
19:00 +14°C° 0 mm 3 mps 741 mmHg 74%
20:00 +13°C° 0 mm 3 mps 741 mmHg 75%
21:00 +13°C° 0 mm 3 mps 741 mmHg 77%
22:00 +12°C° 0 mm 3 mps 741 mmHg 78%
23:00 +12°C° 0 mm 3 mps 741 mmHg 78%

Tomorrow, 23 October, Friday

Time Temperature Precipitation Wind Pressure Humidity
00:00 +12°C° 0 mm 3 mps 741 mmHg 78%
01:00 +12°C° 0 mm 3 mps 741 mmHg 78%
02:00 +12°C° 0 mm 3 mps 740 mmHg 79%
03:00 +12°C° 0 mm 3 mps 740 mmHg 79%
04:00 +11°C° 0 mm 3 mps 740 mmHg 79%
05:00 +11°C° 0 mm 3 mps 740 mmHg 79%
06:00 +11°C° 0 mm 3 mps 739 mmHg 80%
07:00 +11°C° 0 mm 3 mps 739 mmHg 80%
08:00 +12°C° 0 mm 3 mps 739 mmHg 76%
09:00 +13°C° 0 mm 4 mps 739 mmHg 73%
10:00 +14°C° 0 mm 4 mps 739 mmHg 69%
11:00 +15°C° 0 mm 4 mps 739 mmHg 68%
12:00 +17°C° 0 mm 3 mps 739 mmHg 66%
13:00 +17°C° 0 mm 3 mps 739 mmHg 65%
14:00 +17°C° 0 mm 2 mps 738 mmHg 67%
15:00 +16°C° 0 mm 2 mps 738 mmHg 70%
16:00 +16°C° 0 mm 1 mps 738 mmHg 72%
17:00 +15°C° 0 mm 1 mps 738 mmHg 73%
18:00 +15°C° 0 mm 2 mps 738 mmHg 74%
19:00 +15°C° 0 mm 2 mps 738 mmHg 75%
20:00 +14°C° 0 mm 2 mps 738 mmHg 77%
21:00 +14°C° 0 mm 2 mps 738 mmHg 78%
22:00 +14°C° 0 mm 2 mps 738 mmHg 79%
23:00 +14°C° 0.2 mm 2 mps 738 mmHg 81%

Day after tomorrow, 24 October, Saturday

Time Temperature Precipitation Wind Pressure Humidity
00:00 +14°C° 0.2 mm 2 mps 738 mmHg 83%
01:00 +13°C° 0.2 mm 1 mps 738 mmHg 85%
02:00 +13°C° 0.8 mm 2 mps 737 mmHg 88%
03:00 +12°C° 0.8 mm 3 mps 737 mmHg 90%
04:00 +12°C° 0.8 mm 3 mps 737 mmHg 93%
05:00 +12°C° 1.8 mm 4 mps 737 mmHg 94%
06:00 +12°C° 1.8 mm 4 mps 737 mmHg 95%
07:00 +12°C° 1.8 mm 5 mps 737 mmHg 95%
08:00 +13°C° 0.5 mm 5 mps 738 mmHg 93%
09:00 +13°C° 0.5 mm 5 mps 738 mmHg 90%
10:00 +14°C° 0.5 mm 5 mps 738 mmHg 87%
11:00 +14°C° 0.1 mm 5 mps 739 mmHg 83%
12:00 +15°C° 0.1 mm 5 mps 739 mmHg 78%
13:00 +15°C° 0.1 mm 5 mps 740 mmHg 73%
14:00 +15°C° 0.1 mm 4 mps 740 mmHg 74%
15:00 +14°C° 0.1 mm 4 mps 740 mmHg 75%
16:00 +14°C° 0.1 mm 4 mps 740 mmHg 77%
17:00 +13°C° 0 mm 3 mps 741 mmHg 80%
18:00 +12°C° 0 mm 3 mps 741 mmHg 82%
19:00 +12°C° 0 mm 2 mps 742 mmHg 85%
20:00 +10°C° 0 mm 2 mps 742 mmHg 87%
21:00 +10°C° 0 mm 2 mps 742 mmHg 88%
22:00 +9°C° 0 mm 2 mps 742 mmHg 89%
23:00 +9°C° 0 mm 2 mps 742 mmHg 89%

, 25 October, Sunday

Time Temperature Precipitation Wind Pressure Humidity
00:00 +10°C° 0 mm 1 mps 742 mmHg 90%
01:00 +10°C° 0 mm 1 mps 742 mmHg 90%
02:00 +9°C° 0 mm 2 mps 742 mmHg 90%
03:00 +9°C° 0 mm 2 mps 742 mmHg 90%
04:00 +9°C° 0 mm 2 mps 742 mmHg 90%
05:00 +9°C° 0 mm 2 mps 742 mmHg 91%
06:00 +9°C° 0 mm 2 mps 742 mmHg 92%
07:00 +9°C° 0 mm 2 mps 742 mmHg 93%
08:00 +10°C° 0 mm 2 mps 742 mmHg 87%
09:00 +11°C° 0 mm 3 mps 742 mmHg 82%
10:00 +13°C° 0 mm 3 mps 742 mmHg 76%
11:00 +14°C° 0 mm 3 mps 742 mmHg 72%
12:00 +16°C° 0 mm 3 mps 742 mmHg 68%
13:00 +16°C° 0 mm 3 mps 742 mmHg 65%
14:00 +16°C° 0 mm 3 mps 741 mmHg 68%
15:00 +14°C° 0 mm 3 mps 741 mmHg 71%
16:00 +13°C° 0 mm 3 mps 741 mmHg 74%
17:00 +13°C° 0 mm 3 mps 741 mmHg 77%
18:00 +12°C° 0 mm 4 mps 741 mmHg 80%
19:00 +11°C° 0 mm 4 mps 741 mmHg 82%
20:00 +11°C° 0 mm 4 mps 741 mmHg 84%
21:00 +10°C° 0 mm 4 mps 740 mmHg 85%
22:00 +10°C° 0 mm 4 mps 740 mmHg 86%
23:00 +9°C° 0 mm 3 mps 740 mmHg 88%

25 October, Sunday

Time Temperature Precipitation Wind Pressure Humidity
00:00 +10°C° 0 mm 1 mps 742 mmHg 90%
01:00 +10°C° 0 mm 1 mps 742 mmHg 90%
02:00 +9°C° 0 mm 2 mps 742 mmHg 90%
03:00 +9°C° 0 mm 2 mps 742 mmHg 90%
04:00 +9°C° 0 mm 2 mps 742 mmHg 90%
05:00 +9°C° 0 mm 2 mps 742 mmHg 91%
06:00 +9°C° 0 mm 2 mps 742 mmHg 92%
07:00 +9°C° 0 mm 2 mps 742 mmHg 93%
08:00 +10°C° 0 mm 2 mps 742 mmHg 87%
09:00 +11°C° 0 mm 3 mps 742 mmHg 82%
10:00 +13°C° 0 mm 3 mps 742 mmHg 76%
11:00 +14°C° 0 mm 3 mps 742 mmHg 72%
12:00 +16°C° 0 mm 3 mps 742 mmHg 68%
13:00 +16°C° 0 mm 3 mps 742 mmHg 65%
14:00 +16°C° 0 mm 3 mps 741 mmHg 68%
15:00 +14°C° 0 mm 3 mps 741 mmHg 71%
16:00 +13°C° 0 mm 3 mps 741 mmHg 74%
17:00 +13°C° 0 mm 3 mps 741 mmHg 77%
18:00 +12°C° 0 mm 4 mps 741 mmHg 80%
19:00 +11°C° 0 mm 4 mps 741 mmHg 82%
20:00 +11°C° 0 mm 4 mps 741 mmHg 84%
21:00 +10°C° 0 mm 4 mps 740 mmHg 85%
22:00 +10°C° 0 mm 4 mps 740 mmHg 86%
23:00 +9°C° 0 mm 3 mps 740 mmHg 88%

26 October, Monday

Time Temperature Precipitation Wind Pressure Humidity
00:00 +9°C° 0 mm 3 mps 740 mmHg 89%
01:00 +9°C° 0 mm 3 mps 739 mmHg 91%
02:00 +8°C° 0 mm 3 mps 739 mmHg 92%
03:00 +8°C° 0 mm 3 mps 739 mmHg 92%
04:00 +8°C° 0 mm 3 mps 738 mmHg 93%
05:00 +8°C° 0 mm 3 mps 738 mmHg 93%
06:00 +8°C° 0 mm 3 mps 738 mmHg 93%
07:00 +7°C° 0 mm 3 mps 738 mmHg 93%
08:00 +8°C° 0 mm 4 mps 737 mmHg 87%
09:00 +11°C° 0 mm 4 mps 737 mmHg 81%
10:00 +12°C° 0 mm 5 mps 737 mmHg 75%
11:00 +13°C° 0 mm 5 mps 737 mmHg 72%
12:00 +15°C° 0 mm 5 mps 736 mmHg 70%
13:00 +16°C° 0 mm 5 mps 736 mmHg 67%
14:00 +15°C° 0 mm 5 mps 736 mmHg 71%
15:00 +14°C° 0 mm 4 mps 735 mmHg 75%
16:00 +13°C° 0 mm 3 mps 735 mmHg 79%
17:00 +13°C° 0 mm 4 mps 735 mmHg 81%
18:00 +12°C° 0 mm 4 mps 735 mmHg 82%
19:00 +12°C° 0 mm 4 mps 735 mmHg 84%
20:00 +11°C° 0 mm 4 mps 735 mmHg 85%
21:00 +11°C° 0 mm 4 mps 735 mmHg 86%
22:00 +11°C° 0 mm 3 mps 735 mmHg 87%
23:00 +10°C° 0 mm 3 mps 735 mmHg 86%

27 October, Tuesday

Time Temperature Precipitation Wind Pressure Humidity
00:00 +10°C° 0 mm 4 mps 735 mmHg 85%
01:00 +10°C° 0 mm 4 mps 735 mmHg 83%
02:00 +11°C° 0.1 mm 4 mps 735 mmHg 82%
03:00 +11°C° 0.1 mm 4 mps 735 mmHg 80%
04:00 +11°C° 0.1 mm 4 mps 735 mmHg 79%
05:00 +11°C° 0 mm 4 mps 735 mmHg 80%
06:00 +11°C° 0 mm 4 mps 735 mmHg 80%
07:00 +10°C° 0 mm 4 mps 736 mmHg 81%
08:00 +12°C° 0 mm 4 mps 736 mmHg 76%
09:00 +13°C° 0 mm 4 mps 736 mmHg 71%
10:00 +14°C° 0 mm 4 mps 736 mmHg 67%
11:00 +15°C° 0 mm 4 mps 737 mmHg 64%
12:00 +17°C° 0 mm 4 mps 737 mmHg 61%
13:00 +18°C° 0 mm 4 mps 737 mmHg 59%
14:00 +17°C° 0 mm 3 mps 737 mmHg 64%
15:00 +17°C° 0 mm 2 mps 737 mmHg 68%
16:00 +16°C° 0 mm 2 mps 737 mmHg 73%
17:00 +15°C° 0 mm 2 mps 737 mmHg 75%
18:00 +14°C° 0 mm 2 mps 738 mmHg 78%
19:00 +14°C° 0 mm 2 mps 738 mmHg 81%
20:00 +13°C° 0 mm 2 mps 738 mmHg 82%
21:00 +13°C° 0 mm 2 mps 738 mmHg 84%
22:00 +13°C° 0 mm 2 mps 739 mmHg 85%
23:00 +12°C° 0 mm 1 mps 739 mmHg 86%
Show more